JTM125 OPKC-VABB

Flight info

Callsign JTM125
Flight time 1h 18m
Altitude 35000
Route DANGI G472 TELEM LAXOM BVR IPNIB BOFIN
Aircraft B738/M-SDE2FGHIRWY/L

Departure

Time 2026-05-09 08:57
Airport Jinnah International Airport (OPKC)

Arrival

Time 2026-05-09 10:15
Airport Chhatrapati Shivaji Maharaj International Airport (VABB)
Time Latitude Longitude Altitude Speed Heading
2026-05-09 08:39 24.90237 67.16585 88 ft 0 kts 163°
2026-05-09 08:49 24.90242 67.16584 88 ft 1 kts 163°
2026-05-09 08:49 24.90259 67.16579 88 ft 3 kts 164°
2026-05-09 08:49 24.90284 67.16571 88 ft 3 kts 164°
2026-05-09 08:49 24.90311 67.16562 88 ft 4 kts 164°
2026-05-09 08:50 24.90322 67.16554 88 ft 1 kts 64°
2026-05-09 08:50 24.90321 67.16553 88 ft 0 kts 64°
2026-05-09 08:51 24.90327 67.16565 88 ft 5 kts 64°
2026-05-09 08:51 24.90350 67.16637 88 ft 11 kts 72°
2026-05-09 08:52 24.90395 67.16701 87 ft 11 kts
2026-05-09 08:52 24.90471 67.16707 86 ft 11 kts 50°
2026-05-09 08:52 24.90501 67.16777 87 ft 9 kts 70°
2026-05-09 08:52 24.90519 67.16838 88 ft 7 kts 74°
2026-05-09 08:53 24.90534 67.16896 88 ft 7 kts 73°
2026-05-09 08:53 24.90549 67.16961 88 ft 11 kts 77°
2026-05-09 08:53 24.90569 67.17052 89 ft 11 kts 75°
2026-05-09 08:53 24.90589 67.17133 90 ft 10 kts 75°
2026-05-09 08:54 24.90608 67.17207 91 ft 12 kts 75°
2026-05-09 08:54 24.90634 67.17309 93 ft 13 kts 73°
2026-05-09 08:54 24.90665 67.17399 94 ft 12 kts 55°
2026-05-09 08:54 24.90727 67.17452 95 ft 10 kts 29°
2026-05-09 08:55 24.90745 67.17464 96 ft 0 kts 29°
2026-05-09 08:55 24.90763 67.17474 96 ft 9 kts 28°
2026-05-09 08:55 24.90841 67.17482 97 ft 11 kts 314°
2026-05-09 08:56 24.90854 67.17405 97 ft 10 kts 257°
2026-05-09 08:56 24.90832 67.17322 97 ft 16 kts 253°
2026-05-09 08:56 24.90717 67.16869 88 ft 106 kts 254°
2026-05-09 08:56 24.90440 67.15812 94 ft 176 kts 252°
2026-05-09 08:57 24.90072 67.14435 765 ft 194 kts 248°
2026-05-09 08:57 24.89410 67.13171 1758 ft 202 kts 232°
2026-05-09 08:57 24.88417 67.12047 2749 ft 208 kts 222°
2026-05-09 08:57 24.87234 67.11199 3628 ft 215 kts 200°
2026-05-09 08:58 24.85706 67.11147 4329 ft 233 kts 164°
2026-05-09 08:58 24.84269 67.12106 5041 ft 251 kts 135°
2026-05-09 08:58 24.83337 67.13752 5735 ft 268 kts 112°
2026-05-09 08:58 24.82750 67.15743 6487 ft 280 kts 107°
2026-05-09 08:59 24.82221 67.17811 7374 ft 285 kts 105°
2026-05-09 08:59 24.81684 67.19907 8267 ft 290 kts 105°
2026-05-09 08:59 24.81125 67.22031 9157 ft 294 kts 104°
2026-05-09 08:59 24.80549 67.24184 10061 ft 297 kts 104°
2026-05-09 09:00 24.79967 67.26342 11018 ft 299 kts 104°
2026-05-09 09:00 24.79379 67.28513 11983 ft 300 kts 104°
2026-05-09 09:00 24.78781 67.30718 12984 ft 302 kts 103°
2026-05-09 09:00 24.78190 67.32900 13914 ft 304 kts 103°
2026-05-09 09:01 24.77584 67.35144 14809 ft 308 kts 103°
2026-05-09 09:01 24.76973 67.37400 15685 ft 312 kts 103°
2026-05-09 09:01 24.76358 67.39668 16538 ft 315 kts 103°
2026-05-09 09:01 24.75729 67.41988 17358 ft 319 kts 103°
2026-05-09 09:02 24.75091 67.44340 18078 ft 326 kts 103°
2026-05-09 09:02 24.74446 67.46719 18773 ft 333 kts 103°
2026-05-09 09:02 24.73774 67.49194 19476 ft 340 kts 104°
2026-05-09 09:02 24.73097 67.51687 20164 ft 346 kts 104°
2026-05-09 09:03 24.72403 67.54240 20833 ft 352 kts 104°
2026-05-09 09:03 24.71671 67.56795 21457 ft 359 kts 107°
2026-05-09 09:03 24.70724 67.59364 22091 ft 366 kts 112°
2026-05-09 09:03 24.69582 67.61882 22735 ft 372 kts 115°
2026-05-09 09:04 24.68339 67.64401 23161 ft 384 kts 117°
2026-05-09 09:04 24.67005 67.67029 23492 ft 398 kts 117°
2026-05-09 09:04 24.65625 67.69734 23821 ft 411 kts 117°
2026-05-09 09:04 24.64212 67.72514 24141 ft 424 kts 117°
2026-05-09 09:05 24.62767 67.75370 24423 ft 437 kts 117°
2026-05-09 09:05 24.61278 67.78326 24680 ft 450 kts 117°
2026-05-09 09:05 24.59739 67.81390 24936 ft 463 kts 117°
2026-05-09 09:05 24.58155 67.84549 25151 ft 477 kts 117°
2026-05-09 09:06 24.56536 67.87781 25351 ft 490 kts 117°
2026-05-09 09:06 24.54887 67.91076 25718 ft 498 kts 117°
2026-05-09 09:06 24.53231 67.94382 26398 ft 499 kts 117°
2026-05-09 09:06 24.51555 67.97723 27170 ft 498 kts 117°
2026-05-09 09:07 24.49885 68.01054 27919 ft 497 kts 118°
2026-05-09 09:07 24.48229 68.04352 28638 ft 496 kts 118°
2026-05-09 09:07 24.46578 68.07642 29367 ft 495 kts 118°
2026-05-09 09:07 24.44917 68.10950 30030 ft 494 kts 118°
2026-05-09 09:08 24.43277 68.14214 30612 ft 495 kts 118°
2026-05-09 09:08 24.41616 68.17519 31239 ft 495 kts 118°
2026-05-09 09:08 24.39946 68.20839 31843 ft 495 kts 118°
2026-05-09 09:08 24.38282 68.24145 32412 ft 496 kts 119°
2026-05-09 09:09 24.36631 68.27422 33029 ft 495 kts 119°
2026-05-09 09:09 24.34965 68.30726 33748 ft 492 kts 119°
2026-05-09 09:09 24.33324 68.33980 34386 ft 491 kts 119°
2026-05-09 09:09 24.31681 68.37232 34777 ft 494 kts 119°
2026-05-09 09:10 24.29991 68.40578 34792 ft 497 kts 119°
2026-05-09 09:10 24.26686 68.47115 34796 ft 491 kts 119°
2026-05-09 09:11 24.23347 68.53710 34792 ft 493 kts 119°
2026-05-09 09:11 24.20026 68.60259 34791 ft 491 kts 118°
2026-05-09 09:12 24.16716 68.66778 34796 ft 492 kts 119°
2026-05-09 09:12 24.13386 68.73328 34797 ft 491 kts 119°
2026-05-09 09:13 24.09943 68.79781 34796 ft 492 kts 123°
2026-05-09 09:13 24.06137 68.85990 34796 ft 493 kts 125°
2026-05-09 09:14 24.02220 68.92134 34798 ft 494 kts 125°
2026-05-09 09:14 23.98311 68.98278 34798 ft 494 kts 125°
2026-05-09 09:15 23.94407 69.04466 34800 ft 495 kts 125°
2026-05-09 09:15 23.90536 69.10637 34804 ft 493 kts 124°
2026-05-09 09:16 23.86661 69.16828 34800 ft 495 kts 124°
2026-05-09 09:16 23.80861 69.26093 34800 ft 494 kts 124°
2026-05-09 09:17 23.77001 69.32252 34802 ft 494 kts 124°
2026-05-09 09:17 23.73108 69.38455 34798 ft 495 kts 124°
2026-05-09 09:18 23.69212 69.44655 34800 ft 495 kts 124°
2026-05-09 09:18 23.65327 69.50829 34796 ft 495 kts 124°
2026-05-09 09:19 23.61445 69.56989 34794 ft 495 kts 124°
2026-05-09 09:19 23.57533 69.63188 34795 ft 495 kts 124°
2026-05-09 09:20 23.53636 69.69359 34799 ft 495 kts 125°
2026-05-09 09:20 23.49737 69.75523 34802 ft 495 kts 124°
2026-05-09 09:21 23.45841 69.81675 34800 ft 494 kts 124°
2026-05-09 09:21 23.41943 69.87825 34792 ft 494 kts 124°
2026-05-09 09:22 23.38021 69.94004 34786 ft 495 kts 124°
2026-05-09 09:22 23.34120 70.00144 34784 ft 496 kts 125°
2026-05-09 09:23 23.30192 70.06318 34782 ft 496 kts 124°
2026-05-09 09:23 23.26264 70.12482 34782 ft 496 kts 124°
2026-05-09 09:24 23.22351 70.18619 34778 ft 495 kts 124°
2026-05-09 09:24 23.18428 70.24763 34773 ft 496 kts 124°
2026-05-09 09:25 23.14492 70.30920 34770 ft 496 kts 124°
2026-05-09 09:25 23.10557 70.37066 34767 ft 495 kts 124°
2026-05-09 09:26 23.06645 70.43169 34766 ft 495 kts 124°
2026-05-09 09:26 23.02707 70.49309 34763 ft 495 kts 124°
2026-05-09 09:27 22.98764 70.55447 34763 ft 495 kts 124°
2026-05-09 09:27 22.94830 70.61563 34765 ft 496 kts 124°
2026-05-09 09:28 22.90890 70.67683 34772 ft 495 kts 125°
2026-05-09 09:28 22.86960 70.73779 34777 ft 496 kts 125°
2026-05-09 09:29 22.83012 70.79896 34782 ft 496 kts 125°
2026-05-09 09:29 22.78992 70.85993 34784 ft 496 kts 128°
2026-05-09 09:30 22.74623 70.91790 34788 ft 496 kts 130°
2026-05-09 09:30 22.70135 70.97438 34794 ft 495 kts 131°
2026-05-09 09:31 22.65655 71.03084 34799 ft 495 kts 130°
2026-05-09 09:32 22.58975 71.11610 34810 ft 495 kts 130°
2026-05-09 09:32 22.54551 71.17303 34807 ft 494 kts 130°
2026-05-09 09:33 22.50153 71.22974 34811 ft 494 kts 130°
2026-05-09 09:33 22.45731 71.28673 34813 ft 495 kts 130°
2026-05-09 09:34 22.41317 71.34355 34806 ft 494 kts 130°
2026-05-09 09:34 22.36889 71.40050 34800 ft 494 kts 130°
2026-05-09 09:36 22.19254 71.62663 34775 ft 493 kts 130°
2026-05-09 09:37 22.14855 71.68290 34773 ft 492 kts 130°
2026-05-09 09:37 22.10435 71.73936 34767 ft 492 kts 130°
2026-05-09 09:38 22.06003 71.79592 34754 ft 492 kts 130°
2026-05-09 09:38 22.01606 71.85197 34739 ft 493 kts 130°
2026-05-09 09:39 21.97180 71.90833 34739 ft 492 kts 130°
2026-05-09 09:39 21.92752 71.96465 34750 ft 492 kts 130°
2026-05-09 09:40 21.88320 72.02097 34754 ft 491 kts 130°
2026-05-09 09:40 21.83921 72.07680 34761 ft 490 kts 130°
2026-05-09 09:41 21.79502 72.13271 34758 ft 492 kts 131°
2026-05-09 09:41 21.74532 72.18241 34764 ft 490 kts 149°
2026-05-09 09:41 21.71499 72.19852 34766 ft 487 kts 161°
2026-05-09 09:42 21.68263 72.20949 34770 ft 485 kts 166°
2026-05-09 09:42 21.61676 72.22717 34768 ft 484 kts 169°
2026-05-09 09:43 21.55100 72.24332 34766 ft 484 kts 169°
2026-05-09 09:43 21.48538 72.25954 34763 ft 483 kts 169°
2026-05-09 09:44 21.42003 72.27606 34755 ft 483 kts 168°
2026-05-09 09:44 21.35451 72.29289 34759 ft 483 kts 168°
2026-05-09 09:45 21.28893 72.30988 34759 ft 483 kts 168°
2026-05-09 09:45 21.22397 72.32675 34764 ft 482 kts 168°
2026-05-09 09:46 21.15862 72.34373 34765 ft 482 kts 168°
2026-05-09 09:46 21.09343 72.36063 34765 ft 482 kts 168°
2026-05-09 09:47 21.02788 72.37762 34762 ft 481 kts 168°
2026-05-09 09:47 20.96289 72.39445 34758 ft 481 kts 168°
2026-05-09 09:48 20.89807 72.41119 34765 ft 480 kts 168°
2026-05-09 09:48 20.83254 72.42799 34767 ft 481 kts 168°
2026-05-09 09:49 20.76762 72.44482 34770 ft 481 kts 166°
2026-05-09 09:49 20.70483 72.46935 34766 ft 483 kts 158°
2026-05-09 09:50 20.64334 72.49884 34766 ft 483 kts 156°
2026-05-09 09:50 20.58228 72.52845 34720 ft 480 kts 157°
2026-05-09 09:50 20.55209 72.54277 34561 ft 469 kts 157°
2026-05-09 09:51 20.52201 72.55680 34089 ft 463 kts 158°
2026-05-09 09:51 20.49258 72.57034 33416 ft 463 kts 158°
2026-05-09 09:51 20.46322 72.58371 32786 ft 460 kts 158°
2026-05-09 09:51 20.43355 72.59714 32234 ft 457 kts 158°
2026-05-09 09:52 20.40449 72.61025 31674 ft 455 kts 158°
2026-05-09 09:52 20.37536 72.62337 31099 ft 453 kts 158°
2026-05-09 09:52 20.34654 72.63632 30543 ft 450 kts 157°
2026-05-09 09:52 20.31781 72.64923 29920 ft 450 kts 157°
2026-05-09 09:53 20.28909 72.66214 29362 ft 448 kts 157°
2026-05-09 09:53 20.26038 72.67503 28785 ft 446 kts 157°
2026-05-09 09:53 20.23166 72.68793 28265 ft 443 kts 157°
2026-05-09 09:53 20.20344 72.70059 27739 ft 440 kts 157°
2026-05-09 09:54 20.17547 72.71314 27217 ft 437 kts 156°
2026-05-09 09:54 20.14725 72.72580 26702 ft 434 kts 156°
2026-05-09 09:54 20.11968 72.73817 26228 ft 430 kts 156°
2026-05-09 09:54 20.09205 72.75056 25732 ft 427 kts 156°
2026-05-09 09:55 20.06487 72.76273 25226 ft 424 kts 156°
2026-05-09 09:55 20.03783 72.77485 24705 ft 422 kts 156°
2026-05-09 09:55 20.01066 72.78701 24178 ft 420 kts 156°
2026-05-09 09:55 19.98392 72.79898 23706 ft 416 kts 156°
2026-05-09 09:56 19.95712 72.81098 23182 ft 414 kts 155°
2026-05-09 09:56 19.93078 72.82276 22748 ft 409 kts 155°
2026-05-09 09:56 19.90484 72.83436 22253 ft 406 kts 155°
2026-05-09 09:56 19.87857 72.84611 21805 ft 402 kts 155°
2026-05-09 09:57 19.85290 72.85757 21368 ft 398 kts 155°
2026-05-09 09:57 19.82778 72.86880 20969 ft 394 kts 155°
2026-05-09 09:57 19.80245 72.88011 20563 ft 389 kts 155°
2026-05-09 09:57 19.77767 72.89119 20092 ft 386 kts 155°
2026-05-09 09:58 19.75317 72.90213 19692 ft 381 kts 155°
2026-05-09 09:58 19.72868 72.91305 19292 ft 377 kts 155°
2026-05-09 09:58 19.70483 72.92369 18907 ft 372 kts 155°
2026-05-09 09:58 19.68086 72.93439 18473 ft 368 kts 154°
2026-05-09 09:59 19.65735 72.94489 18057 ft 363 kts 154°
2026-05-09 09:59 19.63415 72.95525 17673 ft 359 kts 154°
2026-05-09 09:59 19.61140 72.96539 17276 ft 354 kts 154°
2026-05-09 09:59 19.58878 72.97548 16840 ft 350 kts 154°
2026-05-09 10:00 19.56633 72.98550 16403 ft 347 kts 154°
2026-05-09 10:00 19.54441 72.99526 15996 ft 343 kts 154°
2026-05-09 10:00 19.52237 73.00507 15540 ft 340 kts 154°
2026-05-09 10:00 19.50063 73.01475 15123 ft 336 kts 155°
2026-05-09 10:01 19.47930 73.02424 14691 ft 333 kts 155°
2026-05-09 10:01 19.45792 73.03374 14280 ft 328 kts 154°
2026-05-09 10:01 19.43752 73.04279 14168 ft 313 kts 155°
2026-05-09 10:01 19.41758 73.05162 14069 ft 299 kts 154°
2026-05-09 10:02 19.39885 73.05994 13916 ft 289 kts 154°
2026-05-09 10:02 19.38031 73.06819 13596 ft 287 kts 154°
2026-05-09 10:02 19.36214 73.07629 13247 ft 284 kts 154°
2026-05-09 10:02 19.34376 73.08447 12893 ft 282 kts 154°
2026-05-09 10:03 19.32576 73.09248 12486 ft 281 kts 154°
2026-05-09 10:03 19.30775 73.10047 12089 ft 280 kts 154°
2026-05-09 10:03 19.28976 73.10845 11660 ft 281 kts 154°
2026-05-09 10:03 19.27172 73.11645 11251 ft 280 kts 154°
2026-05-09 10:04 19.25387 73.12436 10928 ft 278 kts 154°
2026-05-09 10:04 19.23632 73.13279 10571 ft 276 kts 148°
2026-05-09 10:04 19.22126 73.14520 10162 ft 271 kts 125°
2026-05-09 10:04 19.21338 73.16266 9800 ft 264 kts 99°
2026-05-09 10:05 19.21245 73.18175 9470 ft 259 kts 86°
2026-05-09 10:05 19.21305 73.20067 9073 ft 259 kts 88°
2026-05-09 10:05 19.21324 73.21958 8779 ft 255 kts 89°
2026-05-09 10:05 19.21326 73.23794 8667 ft 244 kts 88°
2026-05-09 10:06 19.21262 73.25546 8493 ft 238 kts 99°
2026-05-09 10:06 19.20579 73.27133 8175 ft 242 kts 128°
2026-05-09 10:06 19.19204 73.28170 7846 ft 249 kts 158°
2026-05-09 10:06 19.17470 73.28357 7542 ft 254 kts 188°
2026-05-09 10:07 19.15845 73.27615 7253 ft 256 kts 219°
2026-05-09 10:07 19.14749 73.26158 6963 ft 255 kts 244°
2026-05-09 10:07 19.14045 73.24450 6668 ft 254 kts 249°
2026-05-09 10:07 19.13412 73.22741 6552 ft 245 kts 250°
2026-05-09 10:08 19.12795 73.21071 6353 ft 242 kts 250°
2026-05-09 10:08 19.12183 73.19421 6101 ft 240 kts 250°
2026-05-09 10:08 19.11581 73.17799 5891 ft 235 kts 250°
2026-05-09 10:08 19.10990 73.16221 5678 ft 231 kts 250°
2026-05-09 10:09 19.10405 73.14664 5425 ft 225 kts 250°
2026-05-09 10:09 19.09827 73.13139 5197 ft 216 kts 250°
2026-05-09 10:09 19.09280 73.11707 4960 ft 209 kts 250°
2026-05-09 10:09 19.08738 73.10308 4727 ft 203 kts 250°
2026-05-09 10:10 19.08213 73.08945 4497 ft 194 kts 254°
2026-05-09 10:10 19.08057 73.07580 4111 ft 186 kts 277°
2026-05-09 10:10 19.08230 73.06242 3654 ft 183 kts 285°
2026-05-09 10:10 19.08540 73.04963 3200 ft 178 kts 291°
2026-05-09 10:11 19.08909 73.03767 2873 ft 166 kts 287°
2026-05-09 10:11 19.09044 73.02620 2696 ft 149 kts 275°
2026-05-09 10:11 19.09051 73.01557 2506 ft 139 kts 276°
2026-05-09 10:11 19.09055 73.00562 2283 ft 134 kts 275°
2026-05-09 10:12 19.09044 72.99570 2145 ft 135 kts 274°
2026-05-09 10:12 19.09034 72.98579 1957 ft 133 kts 275°
2026-05-09 10:12 19.09023 72.97607 1789 ft 134 kts 275°
2026-05-09 10:12 19.09007 72.96629 1613 ft 133 kts 275°
2026-05-09 10:13 19.08995 72.95651 1450 ft 133 kts 274°
2026-05-09 10:13 19.08979 72.94666 1281 ft 133 kts 274°
2026-05-09 10:13 19.08968 72.93694 1111 ft 132 kts 273°
2026-05-09 10:13 19.08955 72.92725 946 ft 131 kts 272°
2026-05-09 10:14 19.08957 72.91770 776 ft 129 kts 274°
2026-05-09 10:14 19.08907 72.90829 592 ft 130 kts 263°
2026-05-09 10:14 19.08789 72.89879 432 ft 128 kts 269°
2026-05-09 10:14 19.08832 72.88940 303 ft 126 kts 275°
2026-05-09 10:15 19.08876 72.88026 145 ft 127 kts 274°
2026-05-09 10:15 19.08863 72.87094 58 ft 116 kts 268°
2026-05-09 10:15 19.08865 72.86376 33 ft 68 kts 271°
2026-05-09 10:15 19.08864 72.86165 30 ft 0 kts 270°
2026-05-09 10:16 19.08863 72.86148 30 ft 6 kts 268°
2026-05-09 10:16 19.08862 72.86036 28 ft 24 kts 275°
2026-05-09 10:16 19.08929 72.85871 27 ft 14 kts 301°
2026-05-09 10:16 19.08934 72.85863 27 ft 0 kts 301°
2026-05-09 10:18 19.08935 72.85860 27 ft 2 kts 301°
2026-05-09 10:18 19.08967 72.85804 27 ft 11 kts 301°
2026-05-09 10:19 19.09017 72.85765 28 ft 7 kts 50°
2026-05-09 10:19 19.09031 72.85822 28 ft 8 kts 87°
2026-05-09 10:19 19.09031 72.85883 29 ft 10 kts 90°
2026-05-09 10:19 19.09032 72.85973 31 ft 13 kts 89°
2026-05-09 10:20 19.09033 72.86073 31 ft 13 kts 90°
2026-05-09 10:20 19.09034 72.86180 31 ft 17 kts 89°
2026-05-09 10:20 19.09052 72.86325 31 ft 19 kts 57°
2026-05-09 10:20 19.09082 72.86363 32 ft 0 kts 49°
2026-05-09 10:21 19.09084 72.86366 32 ft 2 kts 49°
2026-05-09 10:21 19.09116 72.86405 32 ft 11 kts 49°
2026-05-09 10:22 19.09177 72.86478 31 ft 13 kts 48°
2026-05-09 10:22 19.09238 72.86550 33 ft 12 kts 47°
2026-05-09 10:22 19.09294 72.86616 33 ft 11 kts 49°
2026-05-09 10:22 19.09349 72.86681 34 ft 11 kts 48°
2026-05-09 10:23 19.09397 72.86739 35 ft 10 kts 49°
2026-05-09 10:23 19.09423 72.86803 35 ft 9 kts 98°
2026-05-09 10:23 19.09425 72.86874 35 ft 9 kts 66°
2026-05-09 10:23 19.09462 72.86927 36 ft 8 kts 48°
2026-05-09 10:24 19.09503 72.86976 36 ft 10 kts 49°
2026-05-09 10:24 19.09557 72.87040 37 ft 11 kts 48°
2026-05-09 10:24 19.09610 72.87098 38 ft 10 kts 45°
2026-05-09 10:24 19.09659 72.87150 39 ft 9 kts 45°
2026-05-09 10:25 19.09712 72.87180 39 ft 8 kts 17°
2026-05-09 10:25 19.09751 72.87222 39 ft 8 kts 63°
2026-05-09 10:25 19.09774 72.87273 39 ft 0 kts 65°
2026-05-09 10:25 19.09777 72.87279 39 ft 0 kts 65°